Flag for U.S.A. Weather past 2 weeks in Norwalk, California, U.S.A.

Now
75 °F

Clear.


Feels Like: 77 °F
Forecast: 68 / 85 °F
Wind: 6 mph from South

Location: Fullerton Municipal Airport

Current Time: Jul 27, 2014 at 11:23:13 PM

Latest Report: Jul 27, 2014 at 10:53 PM


Visibility: 10 mi

Pressure: 29.97 "Hg

Humidity: 66%

Dew point: 63 °F

Location of NorwalkLocation

Historic Weather in Norwalk — Graph

°F

Norwalk temperature yesterday

Maximum temperature yesterday: 84 °F (at 3:53 PM)
Minimum temperature yesterday: 70 °F (at 4:53 AM)
Average temperature yesterday: 76 °F

Past Weeks' High & Low Weather Summary

 TemperatureHumidityPressure
High96 °F (Jul 24, 3:53 PM)85% (Jul 22, 6:53 AM)30.05 "Hg (Jul 22, 6:53 AM)
Low65 °F (Jul 18, 5:53 AM)25% (Jul 23, 3:53 PM)29.71 "Hg (Jul 24, 5:53 PM)
Average75 °F63%29.94 "Hg
* Reported Jul 12 9:53 PM — Jul 27 9:53 PM, Norwalk, Weather by CustomWeather, © 2014

Note: Actual official high and low records may vary slightly from our data, if they occured in-between our weather recording intervals... More about our weather records

Advertising

Norwalk weather history for previous 24 hours

 ConditionsComfort  
Time TempWeatherWind HumidityBarometerVisibility
9:53 PM
Jul 27
78 °FClear.3 mph37%29.95 "Hg10 mi
8:53 PM79 °FSunny.3 mph44%29.91 "Hg10 mi
7:53 PM81 °FSunny.6 mph42%29.90 "Hg10 mi
6:53 PM85 °FSunny.7 mph35%29.90 "Hg10 mi
5:53 PM91 °FSunny.5 mph25%29.89 "Hg10 mi
4:53 PM90 °FSunny.6 mph38%29.90 "Hg10 mi
3:53 PM88 °FSunny.6 mph36%29.92 "Hg10 mi
2:53 PM89 °FSunny.5 mph35%29.95 "Hg10 mi
1:53 PM84 °FPassing clouds.8 mph48%29.98 "Hg10 mi
12:53 PM84 °FSunny.8 mph51%29.98 "Hg10 mi
11:53 AM83 °FWarm.5 mph53%29.99 "Hg10 mi
10:53 AM80 °FSunny.3 mph56%30.01 "Hg10 mi
9:53 AM80 °FSunny.3 mph56%29.98 "Hg10 mi
8:53 AM77 °FSunny.No wind62%29.98 "Hg10 mi
7:53 AM73 °FSunny.No wind71%29.98 "Hg8 mi
6:53 AM71 °FClear.No wind76%29.97 "Hg8 mi
5:53 AM71 °FClear.3 mph76%29.94 "Hg9 mi
4:53 AM71 °FClear.3 mph76%29.93 "Hg9 mi
3:53 AM71 °FClear.No wind76%29.94 "Hg10 mi
2:53 AM71 °FClear.No wind73%29.95 "Hg10 mi
1:53 AM72 °FClear.No wind71%29.95 "Hg10 mi
12:53 AM73 °FClear.No wind69%29.96 "Hg10 mi
11:53 PM
Jul 26
72 °FClear.No wind68%29.96 "Hg10 mi
Weather by CustomWeather, © 2014

See weather overviewHow to use our weather pages